Regional Weather Roundup
Issued by NWS

Home | Current Version | Previous Version | Text Only | Print | Product List | Glossary On
Versions: 1 2 3 4 5 6 7 8 9 10 11 12 13 14 15 16 17 18 19 20 21 22 23 24 25 26 27 28 29 30 31 32 33 34 35 36 37 38 39 40 41 42 43 44 45 46 47 48 49 50
000
ASUS45 KABQ 302010
RWRNM
NEW MEXICO REGIONAL WEATHER ROUNDUP
NATIONAL WEATHER SERVICE ALBUQUERQUE NM
200 PM MDT TUE JUN 30 2015

NOTE: "FAIR" MEANS FEW OR NO CLOUDS BELOW 12,000 FEET AGL WITH NO
       SIGNIFICANT WEATHER OR OBSTRUCTIONS TO VISION.

      THIS PRODUCT IS RELEASED AS TWO VERSIONS.  ONE VERSION NEAR
      THE TOP OF THE HOUR CONTAINING PRELIMINARY DATA FROM ALBUQUERQUE
      AND OTHER STATIONS.  A FINAL VERSION WITH ADDITIONAL DATA IS
      ISSUED ABOUT 10 MINUTES AFTER THE HOUR.

NMZ501-503-504-510>518-302100-
NORTHWEST PLATEAU/NORTHCENTRAL MOUNTAINS

CITY           SKY/WX    TMP DP  RH WIND       PRES   REMARKS
FARMINGTON     SUNNY     93  45  19 VRB5      30.12F
LOS ALAMOS     SUNNY     81  44  26 S3        30.31F
SANTA FE       SUNNY     86  43  22 VRB3G17   30.24F
TAOS           SUNNY    N/A N/A N/A W9        30.29F
ANGEL FIRE     FAIR      74  51  44 W5        30.40F

$$
NMZ402-403-502-505>509-302100-
WESTCENTRAL MOUNTAINS/SOUTHWEST MOUNTAINS

CITY           SKY/WX    TMP DP  RH WIND       PRES   REMARKS
GALLUP         SUNNY     91  44  19 NW9       30.21F
GRANTS         SUNNY     88  42  20 E7        30.24F
SILVER CITY      N/A     86  46  25 E9        30.18F

$$
NMZ407-409-411-412-302100-
SOUTHERN DESERTS

CITY           SKY/WX    TMP DP  RH WIND       PRES   REMARKS
LORDSBURG      FAIR      91  48  22 SE5       30.07F
DEMING         PTSUNNY   91  49  23 VRB5      30.08F
LAS CRUCES     CLOUDY    89  45  21 E13G31    30.11F
HOLLOMAN AFB   MOSUNNY   91  49  23 NW2       30.06F
ALAMOGORDO     MOSUNNY   90  48  24 CALM      30.08F
T OR C         SUNNY     91  48  22 VRB7      30.12F

$$
NMZ519>523-302100-
CENTRAL VALLEYS/CENTRAL HIGHLANDS

CITY           SKY/WX    TMP DP  RH WIND       PRES   REMARKS
ALBUQUERQUE    MOSUNNY   89  46  22 NE3       30.17F
DOUBLE EAGLE   MOSUNNY   88  48  25 NE6       30.21F
MORIARTY ARPT    N/A     85  41  21 SE7       30.26F
CLINES CORNERS MOSUNNY   80  45  28 VRB3      30.30F
BELEN          FAIR      90  42  18 E6        30.16F
SOCORRO        FAIR      91  41  17 E12G17    30.13F

$$
NMZ524>526-539-540-302100-
SOUTHCENTRAL MOUNTAINS

CITY           SKY/WX    TMP DP  RH WIND       PRES   REMARKS
RUIDOSO        SUNNY     75  46  35 MISG      30.32F

$$
NMZ527>531-302100-
NORTHEAST HIGHLANDS/NORTHEAST PLAINS

CITY           SKY/WX    TMP DP  RH WIND       PRES   REMARKS
LAS VEGAS      MOSUNNY   78  51  38 S8        30.30F
RATON          SUNNY     81  47  30 VRB5      30.24F
CLAYTON        SUNNY     89  46  22 SW9G18    30.16F

$$
NMZ532>537-302100-
EASTCENTRAL PLAINS

CITY           SKY/WX    TMP DP  RH WIND       PRES   REMARKS
TUCUMCARI      SUNNY     92  45  19 SE9       30.10F
CANNON AFB     MOSUNNY   86  53  31 S12G17    30.14F
CLOVIS AIRPORT SUNNY     84  55  37 SE10      30.15F

$$
NMZ028-029-538-302100-
SOUTHEAST PLAINS

CITY           SKY/WX    TMP DP  RH WIND       PRES   REMARKS
ROSWELL        MOSUNNY   88  59  37 E10       30.10F
ARTESIA        MOSUNNY   86  59  39 CALM      30.11F
CARLSBAD       SUNNY     89  56  32 VRB3      30.07F
HOBBS          PTSUNNY   88  50  27 VRB6      30.11F


$$



USA.gov is the U.S. government's official web portal to all federal, state and local government web resources and services.